Location: Spruce Knob
(38.6995°N, 79.5330°W)
Time: 14:06:21
(UTC-04:00)

BEESAT - Visible Passes

Search period start: 13 April 2024 00:00
Search period end: 23 April 2024 00:00
Orbit: 694 x 702 km, 98.5° (Epoch: 13 April)

Date Brightness Start Highest point End Pass type
(mag) Time Alt. Az. Time Alt. Az. Time Alt. Az.
13 Apr ? 22:59:44 10° NNE 23:00:27 14° NNE 23:00:27 14° NNE visible
14 Apr ? 00:38:41 10° NNW 00:39:15 12° NNW 00:39:15 12° NNW visible
14 Apr ? 23:41:00 10° N 23:42:22 19° N 23:42:22 19° N visible
15 Apr ? 22:44:58 10° NNE 22:45:30 13° NE 22:45:30 13° NE visible
16 Apr ? 00:23:04 10° NNW 00:24:18 15° NNW 00:24:18 15° NNW visible
16 Apr ? 23:25:56 10° NNE 23:27:25 20° N 23:27:25 20° N visible
17 Apr ? 22:30:20 10° NE 22:30:32 11° NE 22:30:32 11° NE visible
18 Apr ? 00:07:40 10° N 00:09:19 19° NNW 00:09:19 19° NNW visible
18 Apr ? 23:10:57 10° NNE 23:12:26 20° NNE 23:12:26 20° NNE visible
19 Apr ? 00:50:42 10° NW 00:51:14 11° NW 00:51:14 11° NW visible
19 Apr ? 23:52:25 10° N 23:54:20 23° NNW 23:54:20 23° NNW visible
20 Apr ? 22:56:05 10° NNE 22:57:27 19° NNE 22:57:27 19° NNE visible
21 Apr ? 00:34:45 10° NNW 00:36:15 15° NW 00:36:15 15° NW visible
21 Apr ? 23:37:15 10° N 23:39:21 26° N 23:39:21 26° N visible
22 Apr ? 22:41:19 10° NE 22:42:27 16° NE 22:42:27 16° NE visible
